Terminal Aerodrome Forecast
Issued by NWS Cleveland, OH

Home | Current Version | Previous Version | Graphics & Text | Print | Product List | Glossary On
Versions: 1 2 3 4 5 6 7 8 9 10 11 12 13 14
000
FTUS41 KCLE 180500
TAFTOL
TAF
KTOL 180525Z 1806/1906 27012G18KT P6SM SCT015 OVC035
      TEMPO 1806/1808 BKN015
     FM180800 28014G20KT P6SM OVC015
     FM181400 32015G25KT P6SM VCSH OVC025
     FM182200 32012G20KT P6SM SCT025 BKN100
      TEMPO 1822/1902 BKN025
     FM190200 32006KT P6SM SCT100=

USA.gov is the U.S. government's official web portal to all federal, state and local government web resources and services.